Regional Weather Roundup
Issued by NWS

Home | Current Version | Previous Version | Text Only | Print | Product List | Glossary Off
Versions: 1 2 3 4 5 6 7 8 9 10 11 12 13 14 15 16 17 18 19 20 21 22 23 24 25 26 27 28 29 30 31 32 33 34 35 36 37 38 39 40 41 42 43 44 45 46 47 48 49 50

000
ASUS43 KLMK 291010
RWRKY
KENTUCKY REGIONAL WEATHER ROUNDUP
NATIONAL WEATHER SERVICE LOUISVILLE KY
600 AM EDT MON AUG 29 2016

NOTE "FAIR" INDICATES FEW OR NO CLOUDS BELOW 12,000 FEET
WITH NO SIGNIFICANT WEATHER AND/OR OBSTRUCTIONS TO VISIBILITY.

KYZ001>023-026-027-061>063-070>075-291100-
WESTERN AND SOUTH CENTRAL KENTUCKY

CITY           SKY/WX    TMP DP  RH WIND       PRES   REMARKS
PADUCAH        FOG       73  72  96 CALM      30.10R VSB 1/2
HENDERSON      CLEAR     72  66  83 E5        30.12S
OWENSBORO      CLEAR     73  71  93 CALM      30.14S
HOPKINSVILLE   CLEAR     71  69  92 NE6       30.11S
BOWLING GREEN  CLEAR     70  68  93 CALM      30.13S
GLASGOW        CLEAR     69  69 100 NE3       30.13F
$$

KYZ024-025-028>034-038-045-046-053-291100-
NORTH CENTRAL KENTUCKY

CITY           SKY/WX    TMP DP  RH WIND       PRES   REMARKS
LOUISVILLE/SDF PTCLDY    72  68  87 NE6       30.16S
LOUISVILLE/LOU CLEAR     71  67  87 N3        30.17S
FORT KNOX      CLEAR     69  68  94 NE6       30.15S
$$

KYZ035>037-039>044-047>052-055>060-089>105-291100-
NORTHEAST KENTUCKY

CITY           SKY/WX    TMP DP  RH WIND       PRES   REMARKS
LEXINGTON      CLEAR     70  67  90 N5        30.19R
COVINGTON      PTCLDY    68  68 100 N5        30.19S FOG
FRANKFORT      CLOUDY    70  67  90 N3        30.18R
$$

KYZ054-064>069-076>088-106>120-291100-
SOUTHEAST KENTUCKY

CITY           SKY/WX    TMP DP  RH WIND       PRES   REMARKS
JACKSON        CLEAR     70  66  87 CALM      30.19R
LONDON         PTCLDY    69  66  90 CALM      30.17R
SOMERSET       CLEAR     68  68 100 CALM      30.17R
MIDDLESBORO    FOG       68  68 100 CALM      30.18R VSB 1/4
MONTICELLO     CLOUDY   N/A N/A N/A N14       30.17R
$$





USA.gov is the U.S. government's official web portal to all federal, state and local government web resources and services.